Tracking 17152 objects as of 3-May-2015
HD Live streaming from Space Station

AMC-4 (GE-4)

Track AMC-4 (GE-4) now!
AMC-4 (GE-4) is classified as:


NORAD ID: 25954
Int'l Code: 1999-060A
Perigee: 35,782.9 km
Apogee: 35,804.1 km
Inclination: 0.1 °
Period: 1,436.1 minutes
Semi major axis: 42164 km
RCS: 18.9697 m2 (large)
Launch date: November 13, 1999
Source: SOCIETE EUROPEENNE DES SATELLITES (SES)

Broadcasting, cable, internet; CONUS, Canada, Mexico, Caribbean, Central America, South America; 28 Ku- and 24 C-band
Your satellite tracking list
Your tracking list is empty





NASA's NSSDC Master Catalog

Two Line Element Set (TLE):
1 25954U 99060A   15122.51142963 -.00000276  00000-0  10000-3 0  9991
2 25954 000.0573 059.8748 0002517 011.0270 266.3233 01.00272708 56732

Source of the keplerian elements: AFSPC

N2YO: 4321